FLT555 VNKT-VNLK

Flight info

Callsign FLT555
Flight time 0h 32m
Altitude 150
Route KIMTI VNKL
Aircraft C408/L-VGD/C

Departure

Time 2026-04-22 11:45
Airport Tribhuvan International Airport (VNKT)

Arrival

Time 2026-04-22 12:17
Airport Tenzing-Hillary Airport (VNLK)
Time Latitude Longitude Altitude Speed Heading
2026-04-22 11:36 27.70566 85.36029 4385 ft 0 kts 245°
2026-04-22 11:42 27.70565 85.36027 4385 ft 4 kts 245°
2026-04-22 11:42 27.70508 85.36029 4383 ft 11 kts 130°
2026-04-22 11:42 27.70492 85.36110 4384 ft 15 kts 86°
2026-04-22 11:42 27.70536 85.36194 4386 ft 14 kts 38°
2026-04-22 11:43 27.70574 85.36238 4388 ft 0 kts 73°
2026-04-22 11:44 27.70563 85.36298 4389 ft 12 kts 140°
2026-04-22 11:44 27.70483 85.36288 4388 ft 20 kts 201°
2026-04-22 11:44 27.70140 85.36133 4376 ft 83 kts 202°
2026-04-22 11:45 27.69450 85.35821 4386 ft 126 kts 201°
2026-04-22 11:45 27.68581 85.35456 4666 ft 138 kts 201°
2026-04-22 11:45 27.67685 85.35032 5035 ft 141 kts 204°
2026-04-22 11:45 27.66840 85.34486 5442 ft 141 kts 231°
2026-04-22 11:46 27.66502 85.33467 5855 ft 141 kts 269°
2026-04-22 11:46 27.66643 85.32383 6280 ft 139 kts 278°
2026-04-22 11:46 27.66791 85.31316 6685 ft 140 kts 278°
2026-04-22 11:46 27.66947 85.30229 7064 ft 141 kts 278°
2026-04-22 11:47 27.67237 85.29184 7450 ft 142 kts 301°
2026-04-22 11:47 27.67904 85.28367 7859 ft 142 kts 323°
2026-04-22 11:47 27.68813 85.27914 8242 ft 145 kts 345°
2026-04-22 11:47 27.69825 85.27924 8611 ft 149 kts 11°
2026-04-22 11:48 27.70791 85.28418 8914 ft 157 kts 31°
2026-04-22 11:48 27.71699 85.29154 9231 ft 163 kts 40°
2026-04-22 11:48 27.72505 85.30082 9542 ft 168 kts 50°
2026-04-22 11:48 27.73171 85.31184 9858 ft 172 kts 60°
2026-04-22 11:49 27.73661 85.32424 10159 ft 174 kts 71°
2026-04-22 11:49 27.73946 85.33738 10439 ft 175 kts 81°
2026-04-22 11:49 27.74016 85.35117 10721 ft 176 kts 91°
2026-04-22 11:49 27.73861 85.36493 11004 ft 178 kts 102°
2026-04-22 11:50 27.73482 85.37818 11285 ft 178 kts 112°
2026-04-22 11:50 27.72893 85.39045 11572 ft 178 kts 123°
2026-04-22 11:50 27.72110 85.40132 11861 ft 179 kts 134°
2026-04-22 11:50 27.71157 85.41038 12149 ft 180 kts 145°
2026-04-22 11:51 27.70067 85.41731 12448 ft 180 kts 155°
2026-04-22 11:51 27.68877 85.42182 12736 ft 180 kts 168°
2026-04-22 11:51 27.67642 85.42411 13035 ft 180 kts 171°
2026-04-22 11:51 27.66479 85.42952 13333 ft 182 kts 148°
2026-04-22 11:52 27.65538 85.43904 13641 ft 183 kts 128°
2026-04-22 11:52 27.64934 85.45157 13934 ft 182 kts 107°
2026-04-22 11:52 27.64606 85.46536 14203 ft 182 kts 104°
2026-04-22 11:52 27.64279 85.47899 14480 ft 183 kts 103°
2026-04-22 11:53 27.63949 85.49283 14751 ft 182 kts 103°
2026-04-22 11:53 27.63622 85.50666 15027 ft 183 kts 103°
2026-04-22 11:53 27.63283 85.52102 15071 ft 197 kts 103°
2026-04-22 11:53 27.62920 85.53634 15081 ft 206 kts 104°
2026-04-22 11:54 27.62544 85.55221 15082 ft 212 kts 104°
2026-04-22 11:54 27.62158 85.56845 15074 ft 215 kts 104°
2026-04-22 11:54 27.61770 85.58481 15086 ft 217 kts 104°
2026-04-22 11:54 27.61380 85.60127 15083 ft 217 kts 104°
2026-04-22 11:55 27.60990 85.61775 15084 ft 217 kts 103°
2026-04-22 11:55 27.60815 85.63454 15081 ft 216 kts 91°
2026-04-22 11:55 27.60730 85.65127 15082 ft 216 kts 92°
2026-04-22 11:55 27.60632 85.66820 15084 ft 217 kts 92°
2026-04-22 11:56 27.60535 85.68517 15081 ft 217 kts 92°
2026-04-22 11:56 27.60439 85.70219 15083 ft 217 kts 92°
2026-04-22 11:56 27.60306 85.71918 15075 ft 217 kts 99°
2026-04-22 11:56 27.59979 85.73580 15095 ft 217 kts 101°
2026-04-22 11:57 27.59658 85.75225 15090 ft 218 kts 101°
2026-04-22 11:57 27.59339 85.76896 15094 ft 218 kts 101°
2026-04-22 11:57 27.59020 85.78567 15095 ft 218 kts 101°
2026-04-22 11:57 27.58696 85.80244 15097 ft 219 kts 101°
2026-04-22 11:58 27.58375 85.81917 15097 ft 218 kts 101°
2026-04-22 11:58 27.58054 85.83589 15098 ft 218 kts 101°
2026-04-22 11:58 27.57732 85.85257 15100 ft 218 kts 101°
2026-04-22 11:58 27.57415 85.86906 15101 ft 218 kts 101°
2026-04-22 11:59 27.57093 85.88578 15109 ft 219 kts 101°
2026-04-22 11:59 27.56767 85.90251 15112 ft 219 kts 101°
2026-04-22 11:59 27.56446 85.91924 15108 ft 218 kts 101°
2026-04-22 11:59 27.56125 85.93597 15111 ft 219 kts 101°
2026-04-22 12:00 27.55799 85.95275 15111 ft 218 kts 101°
2026-04-22 12:00 27.55476 85.96952 15105 ft 219 kts 101°
2026-04-22 12:00 27.55150 85.98621 15110 ft 218 kts 101°
2026-04-22 12:00 27.54826 86.00291 15105 ft 217 kts 101°
2026-04-22 12:01 27.54505 86.01960 15106 ft 218 kts 101°
2026-04-22 12:01 27.54180 86.03630 15105 ft 218 kts 101°
2026-04-22 12:01 27.53860 86.05278 15055 ft 218 kts 101°
2026-04-22 12:01 27.53537 86.06946 15053 ft 218 kts 101°
2026-04-22 12:02 27.53211 86.08616 15055 ft 218 kts 101°
2026-04-22 12:02 27.52886 86.10289 15052 ft 219 kts 101°
2026-04-22 12:02 27.52667 86.11419 15052 ft 218 kts 101°
2026-04-22 12:03 27.51630 86.16740 15052 ft 219 kts 101°
2026-04-22 12:03 27.51300 86.18414 15079 ft 218 kts 100°
2026-04-22 12:03 27.50976 86.20088 15089 ft 218 kts 101°
2026-04-22 12:04 27.50649 86.21758 15092 ft 218 kts 101°
2026-04-22 12:04 27.50326 86.23416 15083 ft 219 kts 100°
2026-04-22 12:04 27.49997 86.25087 15092 ft 216 kts 100°
2026-04-22 12:04 27.49675 86.26740 15080 ft 215 kts 101°
2026-04-22 12:05 27.49291 86.28356 15087 ft 213 kts 102°
2026-04-22 12:05 27.48935 86.29986 15085 ft 215 kts 101°
2026-04-22 12:05 27.48571 86.31626 15090 ft 217 kts 102°
2026-04-22 12:05 27.48200 86.33280 15094 ft 218 kts 102°
2026-04-22 12:06 27.47823 86.34935 15119 ft 220 kts 103°
2026-04-22 12:06 27.47443 86.36597 15116 ft 219 kts 102°
2026-04-22 12:06 27.47067 86.38264 15118 ft 219 kts 102°
2026-04-22 12:06 27.46694 86.39910 15120 ft 219 kts 102°
2026-04-22 12:07 27.46316 86.41582 15116 ft 219 kts 102°
2026-04-22 12:07 27.45939 86.43241 15115 ft 217 kts 102°
2026-04-22 12:07 27.45564 86.44895 15115 ft 218 kts 103°
2026-04-22 12:07 27.45186 86.46561 15115 ft 220 kts 103°
2026-04-22 12:08 27.44806 86.48222 15126 ft 219 kts 102°
2026-04-22 12:08 27.44433 86.49864 15154 ft 220 kts 102°
2026-04-22 12:08 27.44057 86.51511 15141 ft 205 kts 103°
2026-04-22 12:08 27.43721 86.52981 15104 ft 186 kts 101°
2026-04-22 12:09 27.43400 86.54396 14945 ft 187 kts 102°
2026-04-22 12:09 27.43086 86.55776 14693 ft 178 kts 103°
2026-04-22 12:09 27.42777 86.57132 14460 ft 179 kts 103°
2026-04-22 12:09 27.42468 86.58485 14219 ft 178 kts 103°
2026-04-22 12:10 27.42163 86.59813 14001 ft 177 kts 102°
2026-04-22 12:10 27.41860 86.61154 13764 ft 177 kts 103°
2026-04-22 12:10 27.41660 86.62505 13493 ft 174 kts 84°
2026-04-22 12:10 27.41947 86.63798 13234 ft 169 kts 61°
2026-04-22 12:11 27.42647 86.64822 13000 ft 163 kts 37°
2026-04-22 12:11 27.43613 86.65438 12821 ft 161 kts 17°
2026-04-22 12:11 27.44698 86.65770 12562 ft 165 kts 13°
2026-04-22 12:11 27.45799 86.66105 12320 ft 163 kts 14°
2026-04-22 12:12 27.46907 86.66444 12082 ft 166 kts 13°
2026-04-22 12:12 27.48032 86.66684 11848 ft 162 kts
2026-04-22 12:12 27.49153 86.66906 11608 ft 165 kts 10°
2026-04-22 12:12 27.50286 86.67167 11376 ft 167 kts 10°
2026-04-22 12:13 27.51411 86.67424 11150 ft 165 kts 11°
2026-04-22 12:13 27.52543 86.67692 10905 ft 165 kts
2026-04-22 12:13 27.53661 86.67952 10677 ft 162 kts 11°
2026-04-22 12:13 27.54726 86.68198 10427 ft 155 kts 11°
2026-04-22 12:14 27.55792 86.68444 10334 ft 152 kts 10°
2026-04-22 12:14 27.56806 86.68665 10340 ft 149 kts 10°
2026-04-22 12:14 27.57834 86.68896 10329 ft 152 kts 10°
2026-04-22 12:14 27.58876 86.69127 10331 ft 153 kts
2026-04-22 12:15 27.59881 86.69353 10340 ft 146 kts 11°
2026-04-22 12:15 27.60871 86.69574 10332 ft 144 kts 10°
2026-04-22 12:15 27.61839 86.69791 10344 ft 141 kts 10°
2026-04-22 12:15 27.62820 86.70010 10310 ft 145 kts 10°
2026-04-22 12:16 27.63807 86.70228 10291 ft 144 kts
2026-04-22 12:16 27.64793 86.70442 10288 ft 146 kts 11°
2026-04-22 12:16 27.65797 86.70666 10264 ft 143 kts
2026-04-22 12:16 27.66757 86.70736 10295 ft 137 kts 15°
2026-04-22 12:17 27.67596 86.71183 10049 ft 133 kts 31°
2026-04-22 12:17 27.68216 86.71960 9553 ft 139 kts 63°
2026-04-22 12:17 27.68666 86.72920 9356 ft 115 kts 66°
2026-04-22 12:17 27.68752 86.73118 9467 ft 0 kts 121°